TimePST,TemperatureF,Dew PointF,Humidity,Sea Level PressureIn,VisibilityMPH,Wind Direction,Wind SpeedMPH,Gust SpeedMPH,PrecipitationIn,Events,Conditions,WindDirDegrees,DateUTC
12:00 AM,35.2,33.3,92,30.12,-9999.0,North,9.2,-,N/A,,Unknown,0,2013-01-22 08:00:00
1:00 AM,35.2,32.9,91,30.12,-9999.0,North,6.9,-,N/A,,Unknown,0,2013-01-22 09:00:00
2:00 AM,36.0,33.6,91,30.11,-9999.0,North,6.9,-,N/A,,Unknown,0,2013-01-22 10:00:00
3:00 AM,35.4,32.9,91,30.11,-9999.0,North,9.2,-,N/A,,Unknown,0,2013-01-22 11:00:00
4:00 AM,35,33,87,30.08,,Calm,Calm,,,,,80,2013-01-22 12:00:00
4:00 AM,35.4,31.5,85,30.08,-9999.0,North,9.2,-,N/A,,Unknown,0,2013-01-22 12:00:00
5:00 AM,36.0,33.3,90,30.09,-9999.0,North,6.9,-,N/A,,Unknown,0,2013-01-22 13:00:00
6:00 AM,35.4,31.5,85,30.07,-9999.0,North,9.2,-,N/A,,Unknown,0,2013-01-22 14:00:00
7:00 AM,35.6,32.9,90,30.06,-9999.0,North,9.2,-,N/A,,Unknown,0,2013-01-22 15:00:00
8:00 AM,35.6,32.9,90,30.05,-9999.0,North,8.1,-,N/A,,Unknown,0,2013-01-22 16:00:00
9:00 AM,36.0,33.1,89,30.05,-9999.0,North,8.1,-,N/A,,Unknown,0,2013-01-22 17:00:00
10:00 AM,37,33,79,30.06,,Calm,Calm,,,,,70,2013-01-22 18:00:00
10:00 AM,36.7,32.9,86,30.06,-9999.0,North,8.1,-,N/A,,Unknown,0,2013-01-22 18:00:00
11:00 AM,37.8,33.4,84,30.05,-9999.0,North,9.2,-,N/A,,Unknown,0,2013-01-22 19:00:00
12:00 PM,39.7,34.9,83,30.04,-9999.0,North,11.5,-,N/A,,Unknown,0,2013-01-22 20:00:00
1:00 PM,40.1,34.7,81,30.00,-9999.0,North,10.4,-,N/A,,Unknown,0,2013-01-22 21:00:00
2:00 PM,41.0,37.0,86,29.97,-9999.0,North,12.7,-,N/A,,Unknown,0,2013-01-22 22:00:00
3:00 PM,40.3,36.9,88,29.96,-9999.0,North,12.7,-,N/A,,Unknown,0,2013-01-22 23:00:00
4:00 PM,41,36,77,29.94,,Calm,Calm,,,,,110,2013-01-23 00:00:00
4:00 PM,41.4,36.3,82,29.94,-9999.0,North,12.7,-,N/A,,Unknown,0,2013-01-23 00:00:00
5:00 PM,41.2,37.8,88,29.94,-9999.0,North,12.7,-,N/A,,Unknown,0,2013-01-23 01:00:00
6:00 PM,40.5,35.1,81,29.93,-9999.0,North,10.4,-,N/A,,Unknown,0,2013-01-23 02:00:00
7:00 PM,40.5,34.9,80,29.94,-9999.0,North,13.8,-,N/A,,Unknown,0,2013-01-23 03:00:00
8:00 PM,39.7,33.6,79,29.91,-9999.0,North,10.4,-,N/A,,Unknown,0,2013-01-23 04:00:00
9:00 PM,39.6,34.2,81,29.91,-9999.0,North,6.9,-,N/A,,Unknown,0,2013-01-23 05:00:00
10:00 PM,40,35,77,29.91,,Calm,Calm,,,,,40,2013-01-23 06:00:00
10:00 PM,40.1,35.2,83,29.91,-9999.0,North,4.6,-,N/A,,Unknown,0,2013-01-23 06:00:00
11:00 PM,40.5,35.6,83,29.93,-9999.0,North,34.5,-,N/A,,Unknown,0,2013-01-23 07:00:00